Date,TemperatureHighF,TemperatureAvgF,TemperatureLowF,DewpointHighF,DewpointAvgF,DewpointLowF,HumidityHigh,HumidityAvg,HumidityLow,PressureMaxIn,PressureMinIn,WindSpeedMaxMPH,WindSpeedAvgMPH,GustSpeedMaxMPH,PrecipitationSumIn
2013-1-1,51,48,44,50,45,37,95,88,68,30.17,29.98,1,0,5,1.62
2013-1-2,51,43,39,50,40,37,95,90,82,30.20,29.96,6,0,10,0.06
2013-1-3,45,39,34,36,34,29,92,82,65,30.37,30.17,6,1,9,0.00
2013-1-4,50,37,29,29,26,20,87,67,30,30.44,30.34,5,1,11,0.00
2013-1-5,49,38,28,39,29,24,92,72,44,30.44,30.32,1,0,4,0.03
2013-1-6,47,42,37,41,38,35,92,86,73,30.33,30.19,4,0,12,0.00
2013-1-7,60,42,29,35,32,27,94,70,34,30.42,30.30,4,0,6,0.00
2013-1-8,53,46,36,43,37,31,85,72,58,30.44,30.34,0,0,2,0.00
2013-1-9,64,56,49,54,49,41,83,77,69,30.45,30.37,0,0,1,0.00
2013-1-10,66,61,56,59,56,52,93,84,74,30.42,30.23,0,0,3,0.05
2013-1-11,67,63,60,64,62,58,95,93,87,30.23,30.12,4,0,11,0.26
2013-1-12,73,64,58,64,61,56,95,88,67,30.16,30.05,7,0,11,0.01
2013-1-13,72,66,58,63,61,56,94,85,70,30.12,30.01,4,0,11,0.03
2013-1-14,64,55,46,63,53,45,95,94,93,30.16,30.02,3,0,8,1.31
2013-1-15,59,52,47,58,51,45,96,95,95,30.14,29.98,0,0,2,0.79
2013-1-16,64,57,51,63,55,50,96,95,94,30.02,29.92,5,0,10,0.59
2013-1-17,52,45,36,51,44,34,95,94,90,30.29,29.75,15,2,21,0.94
2013-1-18,57,40,32,36,32,28,94,75,35,30.55,30.30,4,0,8,0.00
2013-1-19,56,39,28,37,31,27,96,78,35,30.50,30.27,6,0,6,0.01
2013-1-20,63,43,29,41,35,28,95,77,42,30.27,30.15,4,0,8,0.00
2013-1-21,56,43,31,36,30,20,95,65,40,30.21,30.12,4,0,11,0.00
2013-1-22,44,34,28,22,17,12,73,51,34,30.36,30.20,9,1,14,0.00
2013-1-23,55,40,24,40,25,15,80,58,39,30.44,30.23,3,0,7,0.00
2013-1-24,51,45,33,41,28,13,79,55,24,30.39,30.18,8,1,12,0.00
2013-1-25,38,35,31,33,21,13,91,57,43,30.42,30.19,1,0,6,0.02
2013-1-26,57,43,36,37,32,27,94,70,32,30.33,30.19,5,1,8,0.00
2013-1-27,55,44,38,35,34,31,80,66,47,30.49,30.32,1,0,4,0.00
2013-1-28,55,46,40,46,39,33,93,77,68,30.45,30.31,0,0,3,0.00
2013-1-29,72,58,41,62,53,40,94,85,64,30.31,29.98,2,0,12,0.00
2013-1-30,68,60,42,65,57,36,94,90,80,29.96,29.55,10,2,18,1.78
2013-1-31,50,41,34,36,28,25,79,62,39,30.19,29.81,12,2,18,0.00
2013-2-1,42,36,25,32,19,8,75,52,27,30.41,30.16,6,1,13,0.00
2013-2-2,51,35,22,40,25,14,94,70,27,30.41,30.18,4,0,12,0.24
2013-2-3,56,44,34,39,33,27,95,70,33,30.18,30.03,12,1,14,0.01
2013-2-4,50,40,29,35,30,26,90,69,44,30.16,30.05,1,0,6,0.00
2013-2-5,60,47,33,49,41,31,93,80,63,30.08,30.01,3,0,8,0.00
2013-2-6,69,52,43,47,40,32,96,71,29,30.20,30.07,5,0,6,0.00
2013-2-7,49,46,43,45,42,36,94,87,62,30.17,29.97,1,0,4,0.23
2013-2-8,56,47,37,49,44,33,94,87,67,30.21,29.95,6,1,10,0.07
2013-2-9,66,45,31,35,31,27,93,65,24,30.34,30.18,2,0,7,0.01
2013-2-10,60,49,40,51,41,32,94,76,52,30.34,30.07,1,0,4,1.38
2013-2-11,56,52,48,54,50,47,95,94,89,30.16,30.05,3,0,5,0.40
2013-2-12,56,48,44,47,42,34,95,83,48,30.15,29.87,1,0,3,0.17
2013-2-13,51,45,38,48,42,35,95,89,76,30.00,29.77,6,1,15,0.06
2013-2-14,58,44,36,37,34,33,93,71,40,30.11,30.00,9,1,12,0.00
2013-2-15,62,46,30,41,35,29,96,70,33,30.16,30.02,4,0,12,0.00
2013-2-16,43,37,30,37,24,12,82,60,35,30.18,29.99,13,1,17,0.00
2013-2-17,48,34,24,22,16,13,76,53,27,30.35,30.18,6,0,17,0.00
2013-2-18,61,43,26,30,26,21,89,56,30,30.40,30.16,7,1,12,0.00
2013-2-19,58,46,40,46,33,21,94,64,35,30.19,30.04,7,1,18,0.47
2013-2-20,51,40,31,21,16,8,62,40,20,30.23,30.15,6,1,11,0.00
2013-2-21,67,48,29,44,25,17,88,44,20,30.23,29.97,3,0,6,0.11
2013-2-22,46,42,41,43,41,39,94,93,89,30.17,30.06,1,0,5,1.61
2013-2-23,53,46,41,49,45,40,95,93,86,30.08,29.88,1,0,4,0.97
2013-2-24,64,50,39,47,37,29,95,67,29,30.07,29.94,4,0,10,0.00
2013-2-25,52,45,39,39,34,30,93,68,49,30.06,29.88,2,0,6,0.01
2013-2-26,50,42,37,47,39,35,94,89,74,29.88,29.59,5,0,10,1.61
2013-2-27,61,49,41,38,35,33,76,61,38,29.93,29.82,8,1,13,0.00
2013-2-28,48,41,36,37,31,26,85,68,53,30.03,29.88,8,1,13,0.00
2013-3-1,43,38,35,32,29,26,79,68,59,30.05,29.99,3,1,10,0.00
2013-3-2,39,36,33,31,29,25,90,77,63,30.08,29.99,6,1,11,0.00
2013-3-3,42,34,26,26,22,19,81,63,45,30.14,30.05,6,1,14,0.00
2013-3-4,59,42,25,33,25,18,87,55,23,30.24,30.04,6,0,9,0.00
2013-3-5,64,53,39,56,44,30,92,73,56,30.10,29.70,12,2,22,0.42
2013-3-6,44,37,32,31,27,22,89,67,56,30.23,29.91,10,3,18,0.00
2013-3-7,57,42,31,34,30,27,87,65,38,30.31,30.20,5,1,10,0.00
2013-3-8,66,46,30,33,28,23,90,56,23,30.36,30.25,2,0,7,0.00
2013-3-9,62,49,36,37,31,27,77,52,33,30.36,30.23,5,0,5,0.00
2013-3-10,73,58,47,44,37,31,70,48,24,30.24,30.07,6,0,9,0.00
2013-3-11,66,57,48,56,52,45,94,83,66,30.08,29.81,3,0,9,1.69
2013-3-12,59,48,38,46,36,33,93,68,40,30.14,29.86,8,1,14,0.01
2013-3-13,56,44,34,34,28,22,92,58,29,30.30,30.13,7,1,14,0.00
2013-3-14,56,41,28,27,20,16,71,47,21,30.42,30.27,7,1,11,0.00
2013-3-15,76,55,31,44,37,28,93,55,31,30.28,30.01,9,1,16,0.00
2013-3-16,78,64,48,45,42,38,79,49,24,30.02,29.88,9,1,16,0.00
2013-3-17,71,63,54,55,50,43,84,64,48,30.00,29.90,6,1,13,0.00
2013-3-18,60,54,45,57,51,44,95,89,77,29.99,29.82,4,0,12,0.72
2013-3-19,63,52,43,46,36,26,95,60,28,30.11,29.90,6,1,13,0.00
2013-3-20,59,49,40,30,23,16,63,38,21,30.16,29.93,9,1,14,0.00
2013-3-21,49,39,30,30,18,7,75,46,23,30.02,29.94,12,1,13,0.00
2013-3-22,51,43,33,36,28,21,76,57,47,30.11,30.01,2,0,6,0.00
2013-3-23,58,49,43,51,45,35,94,85,61,30.05,29.79,2,0,3,1.02
2013-3-24,52,49,43,50,46,32,94,89,65,29.80,29.54,15,1,17,1.21
2013-3-25,43,38,35,32,26,22,70,61,51,30.12,29.72,16,2,17,0.00
2013-3-26,42,37,33,28,26,23,79,66,53,30.34,30.09,10,1,15,0.00
2013-3-27,56,41,28,29,26,24,89,59,33,30.40,30.29,6,1,13,0.00
2013-3-28,62,44,29,34,28,19,91,61,23,30.39,30.28,6,1,12,0.00
2013-3-29,71,51,34,37,34,31,92,57,28,30.37,30.19,3,0,10,0.00
2013-3-30,74,58,47,55,44,35,93,61,38,30.21,30.03,6,0,10,0.44
2013-3-31,70,61,56,61,56,54,94,82,61,30.03,29.87,10,1,11,0.23
2013-4-1,72,62,52,56,48,37,94,66,33,30.04,29.87,5,0,13,0.00
2013-4-2,66,54,44,41,34,27,77,51,24,30.19,30.04,6,0,12,0.00
2013-4-3,62,52,42,46,34,28,92,54,34,30.20,30.11,1,0,5,0.13
2013-4-4,46,43,40,44,41,39,93,92,91,30.18,30.00,1,0,6,0.41
2013-4-5,68,54,41,48,42,38,94,68,35,30.09,29.98,5,0,9,0.00
2013-4-6,74,57,38,45,39,36,94,59,26,30.22,30.10,5,0,9,0.00
2013-4-7,77,60,45,51,47,41,90,64,36,30.22,30.07,5,1,12,0.00
2013-4-8,80,64,51,57,53,49,92,71,41,30.16,30.05,10,0,14,0.00
2013-4-9,83,67,53,60,56,51,94,71,41,30.19,30.07,4,0,8,0.00
2013-4-10,86,70,54,61,57,52,94,68,39,30.12,29.92,5,0,9,0.00
2013-4-11,81,69,57,68,61,54,93,77,56,29.94,29.63,11,1,18,1.72
2013-4-12,70,62,54,63,50,40,93,69,35,29.94,29.65,6,1,15,0.11
2013-4-13,77,63,49,46,41,36,76,48,26,30.06,29.93,6,1,14,0.00
2013-4-14,61,54,47,56,49,42,92,83,61,30.07,29.89,1,0,6,0.15
2013-4-15,78,65,56,60,57,54,94,79,53,30.14,29.94,3,0,6,0.01
2013-4-16,83,69,59,65,61,57,93,78,52,30.25,30.14,1,0,4,0.00
2013-4-17,87,72,61,66,63,59,93,74,47,30.22,30.07,5,0,7,0.00
2013-4-18,84,70,59,62,60,57,95,72,46,30.08,29.89,6,0,11,0.00
2013-4-19,72,58,45,66,53,40,93,83,67,30.05,29.76,5,1,15,0.77
2013-4-20,66,51,38,39,34,32,81,56,30,30.26,30.05,7,1,12,0.00
2013-4-21,73,55,39,43,40,37,92,61,31,30.36,30.25,3,0,6,0.00
2013-4-22,74,59,48,50,44,39,79,60,40,30.33,30.15,2,0,7,0.00
2013-4-23,78,60,44,51,45,39,83,60,37,30.25,30.08,4,0,7,0.00
2013-4-24,74,62,52,62,56,49,93,82,55,30.16,30.07,8,1,16,0.09
2013-4-25,72,56,44,51,41,33,91,63,26,30.33,30.16,4,1,11,0.00
2013-4-26,79,59,39,49,42,37,92,59,28,30.40,30.27,6,0,8,0.00
2013-4-27,74,63,57,57,53,46,88,71,55,30.35,30.14,5,0,5,0.01
2013-4-28,60,58,56,58,56,54,95,94,90,30.19,30.01,1,0,4,1.94
2013-4-29,78,62,56,63,57,54,95,84,46,30.07,29.93,1,0,4,0.01
2013-4-30,80,66,54,64,59,53,95,80,50,30.10,29.96,3,0,8,0.00
2013-5-1,70,64,61,60,58,55,93,80,62,30.20,30.09,2,0,7,0.00
2013-5-2,68,62,59,61,58,55,91,85,77,30.19,30.12,3,0,5,0.00
2013-5-3,64,61,58,58,57,54,92,86,77,30.14,29.96,4,0,13,0.00
2013-5-4,60,54,50,55,52,48,95,92,83,29.97,29.87,2,0,8,2.91
2013-5-5,69,56,48,56,51,46,95,87,53,29.87,29.75,5,0,8,1.91
2013-5-6,59,51,46,52,48,45,95,91,72,29.92,29.82,3,0,11,0.38
2013-5-7,71,59,50,55,51,48,95,78,51,30.00,29.89,7,0,9,0.00
2013-5-8,78,64,51,59,55,49,93,75,49,30.08,29.98,4,0,10,0.00
2013-5-9,84,69,56,61,57,54,94,71,39,30.13,30.04,4,0,8,0.00
2013-5-10,78,67,56,62,58,54,94,75,52,30.09,29.96,5,0,14,0.00
2013-5-11,76,67,59,66,62,57,93,84,67,30.00,29.88,3,0,9,0.10
2013-5-12,70,60,50,60,46,35,94,64,28,30.12,29.95,6,1,12,0.00
2013-5-13,71,56,39,43,38,33,93,56,28,30.26,30.11,7,1,11,0.00
2013-5-14,82,62,42,57,49,41,94,66,39,30.28,30.12,5,1,9,0.00
2013-5-15,88,72,60,60,57,54,84,61,34,30.18,30.01,4,0,9,0.00
2013-5-16,86,70,60,65,60,57,92,73,43,30.09,29.98,0,0,0,0.00
2013-5-17,83,70,57,67,60,55,93,75,40,30.10,30.02,3,0,9,0.09
2013-5-18,75,68,62,68,65,60,94,89,77,30.08,30.03,6,0,7,0.23
2013-5-19,71,67,63,68,65,61,95,93,91,30.12,29.99,5,0,8,0.46
2013-5-20,88,73,62,71,66,61,96,82,54,30.12,30.00,2,0,7,0.00
2013-5-21,91,75,64,74,67,62,96,79,50,30.04,29.89,7,0,7,0.01
2013-5-22,88,75,64,70,65,62,94,74,45,29.97,29.84,7,1,10,0.00
2013-5-23,84,75,67,66,62,57,92,67,45,29.98,29.90,7,1,12,0.00
2013-5-24,76,67,60,57,52,46,82,60,40,30.21,29.98,10,1,15,0.00
2013-5-25,82,64,46,51,46,43,93,58,26,30.33,30.20,5,0,10,0.00
2013-5-26,87,67,50,56,51,48,94,63,27,30.27,30.16,3,0,8,0.00
2013-5-27,87,71,56,64,58,54,92,68,35,30.24,30.09,3,0,9,0.00
2013-5-28,89,75,64,65,60,55,88,65,35,30.19,30.10,4,0,9,0.00
2013-5-29,86,73,62,67,64,59,93,74,46,30.21,30.11,1,0,7,0.00
2013-5-30,86,74,65,69,66,63,93,77,53,30.23,30.10,2,0,5,0.00
2013-5-31,88,76,67,69,66,64,92,73,46,30.19,30.05,4,0,10,0.00
2013-6-1,86,76,67,71,67,64,93,76,54,30.09,29.97,6,0,11,0.02
2013-6-2,86,74,67,73,69,65,94,84,61,29.99,29.84,6,0,12,1.16
2013-6-3,85,74,66,72,67,65,95,81,52,29.96,29.87,3,0,7,0.00
2013-6-4,90,75,62,69,65,61,95,75,47,30.01,29.93,4,0,7,0.00
2013-6-5,86,74,68,74,70,67,94,87,65,30.02,29.87,1,0,6,0.64
2013-6-6,82,72,68,72,69,66,95,89,69,29.91,29.74,2,0,6,0.01
2013-6-7,84,72,66,71,67,65,95,87,62,29.85,29.69,5,0,7,0.65
2013-6-8,84,73,66,70,67,64,95,82,58,30.07,29.86,3,0,6,0.00
2013-6-9,82,72,67,73,69,65,95,91,70,30.09,30.00,3,0,11,1.16
2013-6-10,80,72,65,73,69,63,94,89,72,30.04,29.93,4,1,13,0.29
2013-6-11,91,80,71,74,72,69,94,79,57,30.04,29.95,4,1,8,0.00
2013-6-12,94,82,72,76,74,70,94,79,53,30.05,29.95,5,0,9,0.00
2013-6-13,91,80,66,74,72,65,95,76,52,29.96,29.72,6,1,16,1.08
2013-6-14,88,74,64,68,65,62,96,76,42,29.99,29.83,3,0,5,0.00
2013-6-15,87,73,62,67,63,60,94,74,42,30.12,29.99,4,0,8,0.00
2013-6-16,88,73,61,73,67,60,95,81,53,30.15,30.00,4,0,9,1.12
2013-6-17,87,72,67,76,69,65,95,91,69,30.10,29.93,3,0,8,0.47
2013-6-18,85,73,67,75,70,66,95,91,70,29.97,29.84,8,1,10,1.31
2013-6-19,85,74,67,72,69,66,95,85,63,30.08,29.90,1,0,4,0.00
2013-6-20,86,74,65,72,67,64,96,82,57,30.18,30.07,1,0,4,0.00
2013-6-21,86,73,64,71,66,63,95,80,54,30.23,30.13,2,0,5,0.00
2013-6-22,88,74,64,68,65,63,95,76,45,30.22,30.08,1,0,6,0.00
2013-6-23,86,75,66,73,68,65,94,82,58,30.20,30.09,3,0,5,0.00
2013-6-24,82,73,68,74,70,66,95,91,76,30.21,30.10,2,0,6,0.52
2013-6-25,86,75,66,77,70,65,96,86,59,30.16,30.03,2,0,8,0.22
2013-6-26,88,78,68,75,72,67,96,82,60,30.08,29.92,5,0,5,0.64
2013-6-27,88,79,73,76,73,69,94,82,67,29.98,29.80,6,1,12,0.20
2013-6-28,91,80,70,77,71,66,96,76,51,29.86,29.64,5,0,10,0.00
2013-6-29,89,78,69,71,68,64,94,73,45,29.71,29.64,5,0,7,0.00
2013-6-30,87,75,65,72,67,63,96,79,48,29.78,29.68,2,0,4,0.03
2013-7-1,82,72,66,73,69,64,95,89,70,29.91,29.77,4,0,8,0.07
2013-7-2,87,75,67,73,69,66,95,82,51,30.06,29.90,6,0,9,0.00
2013-7-3,73,70,67,71,68,65,95,94,87,30.16,30.04,0,0,7,3.53
2013-7-4,74,70,67,73,69,66,96,95,94,30.17,30.07,1,0,7,0.79
2013-7-5,81,72,68,75,70,67,96,94,78,30.20,30.11,1,0,5,0.73
2013-7-6,80,73,69,77,71,68,96,94,86,30.15,30.07,1,0,4,0.50
2013-7-7,80,74,71,74,71,69,96,93,80,30.18,30.10,1,0,5,0.15
2013-7-8,89,76,70,75,72,68,96,86,56,30.19,30.08,4,0,6,0.04
2013-7-9,92,79,71,76,73,70,95,83,56,30.17,30.04,5,0,6,0.00
2013-7-10,92,78,72,77,73,71,96,86,54,30.09,29.95,2,0,11,0.00
2013-7-11,83,74,69,74,71,68,95,90,72,29.97,29.87,2,0,3,0.01
2013-7-12,89,77,70,75,71,67,96,84,61,29.94,29.84,4,0,8,0.00
2013-7-13,80,72,67,73,69,65,95,90,78,30.06,29.93,1,0,5,0.00
2013-7-14,85,75,71,76,72,69,95,90,73,30.19,30.04,2,0,8,0.09
2013-7-15,87,75,70,76,72,69,95,89,66,30.27,30.18,3,0,5,0.08
2013-7-16,90,77,69,76,71,68,96,83,59,30.31,30.22,1,0,3,0.01
2013-7-17,94,76,67,77,70,65,96,82,49,30.27,30.12,7,0,11,0.85
2013-7-18,90,76,67,77,71,66,96,86,63,30.19,30.04,3,0,5,0.07
2013-7-19,91,79,71,76,72,69,96,82,54,30.11,29.97,5,0,5,0.00
2013-7-20,88,75,70,77,71,68,95,89,66,30.03,29.94,5,0,7,0.51
2013-7-21,91,75,69,77,72,68,96,88,57,30.04,29.91,4,0,10,0.15
2013-7-22,85,76,69,77,72,68,96,87,70,30.01,29.87,4,0,10,0.15
2013-7-23,84,75,71,73,70,69,95,86,65,29.97,29.83,4,0,10,0.00
2013-7-24,86,76,70,75,71,68,95,86,69,29.89,29.80,6,0,7,0.00
2013-7-25,91,77,68,73,69,67,95,79,49,29.99,29.83,6,0,7,0.00
2013-7-26,88,75,67,76,71,65,95,86,61,30.05,29.96,3,0,7,0.00
2013-7-27,81,74,69,73,69,67,96,86,67,30.00,29.89,4,0,8,0.00
2013-7-28,89,76,67,73,69,66,95,81,55,30.03,29.92,3,0,6,0.00
2013-7-29,88,75,66,69,64,55,95,72,34,30.16,30.02,3,0,5,0.00
2013-7-30,92,74,60,69,64,58,96,73,37,30.20,30.09,0,0,4,0.00
2013-7-31,79,73,70,73,70,67,95,92,81,30.14,29.97,2,0,4,1.09
2013-8-1,87,77,71,75,72,69,96,85,63,29.99,29.91,2,0,6,0.03
2013-8-2,92,77,67,73,68,65,96,78,44,30.03,29.92,4,0,5,0.00
2013-8-3,88,76,65,73,69,64,96,81,57,30.06,29.99,2,0,8,0.00
2013-8-4,89,79,73,74,71,68,95,79,54,30.03,29.95,4,0,10,0.00
2013-8-5,87,75,67,75,69,65,93,82,59,30.04,29.96,1,0,3,0.00
2013-8-6,90,78,70,76,71,67,95,81,55,30.01,29.94,3,0,4,0.00
2013-8-7,84,75,72,78,73,70,96,93,74,30.04,29.96,4,0,6,0.11
2013-8-8,83,75,72,77,74,71,96,94,80,30.05,29.99,2,0,4,0.04
2013-8-9,90,80,72,77,74,71,96,84,57,30.08,30.00,6,0,8,0.01
2013-8-10,92,79,71,77,73,70,96,84,56,30.11,30.05,4,0,7,0.03
2013-8-11,92,79,70,75,72,69,96,82,52,30.16,30.04,4,0,8,0.00
2013-8-12,88,76,71,79,73,70,95,90,66,30.11,29.99,4,0,9,0.97
2013-8-13,87,77,70,75,72,69,96,86,63,30.02,29.87,5,0,7,0.00
2013-8-14,82,75,70,73,71,68,95,88,71,30.01,29.88,2,0,4,0.00
2013-8-15,75,70,67,67,64,61,94,82,66,30.08,29.99,2,0,6,0.00
2013-8-16,68,66,63,64,62,61,95,89,82,30.11,30.03,1,0,4,0.03
2013-8-17,66,64,62,64,62,60,96,93,85,30.15,30.08,1,0,4,0.20
2013-8-18,76,69,65,72,68,64,96,94,86,30.20,30.11,4,0,4,0.18
2013-8-19,82,73,69,75,70,68,96,93,77,30.15,30.04,0,0,3,1.23
2013-8-20,80,74,70,75,71,69,96,92,82,30.17,30.08,0,0,2,0.00
2013-8-21,84,74,69,76,72,68,96,91,76,30.23,30.10,1,0,4,0.00
2013-8-22,90,75,69,76,71,68,96,89,56,30.16,30.05,3,0,6,0.19
2013-8-23,91,77,67,75,71,66,97,84,54,30.09,29.97,1,0,5,0.01
2013-8-24,84,74,68,73,70,67,96,86,64,30.24,30.02,3,0,5,0.25
2013-8-25,83,71,63,69,65,61,94,81,57,30.36,30.24,1,0,4,0.00
2013-8-26,84,69,58,69,63,57,96,81,54,30.32,30.16,5,0,5,0.00
2013-8-27,88,72,60,71,66,59,96,82,48,30.18,30.04,4,0,5,0.00
2013-8-28,91,77,68,74,70,67,95,81,51,30.07,29.97,2,0,5,0.00
2013-8-29,92,80,71,75,73,69,95,79,56,30.01,29.91,6,1,9,0.00
2013-8-30,87,78,73,78,74,71,95,89,69,30.01,29.91,1,0,3,0.00
2013-8-31,92,78,71,77,73,69,96,86,56,29.97,29.86,4,0,8,0.26
2013-9-1,84,74,69,77,72,68,96,92,78,29.93,29.85,3,0,6,0.01
2013-9-2,84,73,69,74,70,68,96,91,69,29.98,29.87,2,0,7,0.19
2013-9-3,90,78,71,75,72,69,95,83,53,29.98,29.87,5,0,7,0.01
2013-9-4,91,76,65,72,67,63,96,79,41,30.09,29.96,1,0,7,0.00
2013-9-5,90,75,65,71,68,64,96,79,46,30.13,30.05,4,0,5,0.00
2013-9-6,88,74,65,72,68,63,96,82,56,30.15,30.05,1,0,5,0.00
2013-9-7,89,73,64,71,66,62,96,81,46,30.13,30.00,2,0,5,0.00
2013-9-8,90,75,64,72,68,62,96,80,49,30.03,29.94,5,0,8,0.00
2013-9-9,89,75,67,74,70,66,95,83,55,30.11,29.98,2,0,5,0.00
2013-9-10,89,75,67,74,70,66,95,84,60,30.21,30.11,2,0,4,0.00
2013-9-11,90,75,66,73,68,64,96,79,46,30.22,30.09,1,0,7,0.00
2013-9-12,91,76,65,71,68,64,95,76,49,30.11,29.91,3,0,8,0.00
2013-9-13,87,75,64,69,64,55,94,71,46,29.92,29.81,7,1,12,0.00
2013-9-14,82,67,53,61,57,52,95,73,45,30.08,29.90,3,0,5,0.00
2013-9-15,81,70,60,72,66,59,95,86,67,30.17,30.07,1,0,3,0.00
2013-9-16,88,74,65,71,65,59,96,76,38,30.14,30.05,6,0,7,0.00
2013-9-17,80,70,65,65,63,61,91,78,58,30.23,30.10,2,0,7,0.00
2013-9-18,76,68,64,66,62,59,94,80,66,30.24,30.13,4,0,4,0.00
2013-9-19,87,70,59,67,62,58,96,80,47,30.20,30.07,3,0,9,0.00
2013-9-20,87,72,61,68,64,60,96,78,49,30.09,29.91,5,0,7,0.00
2013-9-21,71,68,64,69,66,63,95,93,86,29.93,29.72,3,0,8,1.19
2013-9-22,82,66,56,67,61,55,96,84,50,29.89,29.77,6,0,7,0.01
2013-9-23,80,66,57,67,61,55,96,84,58,30.02,29.89,1,0,5,0.00
2013-9-24,70,66,64,65,63,61,95,90,81,30.03,29.89,1,0,4,0.10
2013-9-25,65,64,62,64,63,61,96,96,95,29.90,29.84,0,0,3,1.55
2013-9-26,80,67,58,68,63,57,97,87,62,30.02,29.89,1,0,4,0.00
2013-9-27,80,67,56,65,60,55,96,81,48,30.14,30.02,2,0,5,0.00
2013-9-28,77,63,55,62,58,54,96,83,53,30.23,30.12,3,0,6,0.00
2013-9-29,74,62,53,61,56,52,96,84,56,30.17,30.05,6,0,6,0.00
2013-9-30,75,63,54,63,58,53,96,86,63,30.11,30.01,2,0,6,0.00
2013-10-1,83,66,55,67,60,54,96,84,55,30.18,30.07,3,0,4,0.01
2013-10-2,83,67,56,66,62,55,97,83,53,30.17,30.07,2,0,5,0.00
2013-10-3,83,70,62,67,63,61,96,81,51,30.15,30.06,3,0,6,0.00
2013-10-4,85,68,59,69,64,58,96,85,54,30.17,30.09,2,0,6,0.00
2013-10-5,86,70,60,70,64,59,96,84,52,30.14,30.01,1,0,6,0.00
2013-10-6,82,68,60,70,64,59,96,88,64,30.04,29.86,2,0,7,1.94
2013-10-7,73,63,57,65,58,52,96,83,60,29.97,29.83,6,0,11,0.38
2013-10-8,76,64,54,63,57,51,94,80,58,30.15,29.97,4,0,8,0.00
2013-10-9,78,62,53,58,54,47,94,75,46,30.21,30.11,3,0,4,0.00
2013-10-10,80,63,51,62,56,50,96,81,51,30.16,30.02,5,0,10,0.00
2013-10-11,79,65,55,59,56,53,95,78,43,30.07,29.98,7,1,12,0.00
2013-10-12,81,66,56,63,58,55,95,80,49,30.11,30.00,6,0,13,0.00
2013-10-13,83,66,55,66,60,53,96,82,48,30.20,30.09,1,0,6,0.01
2013-10-14,75,65,58,65,61,57,96,87,67,30.21,30.11,1,0,4,0.00
2013-10-15,68,64,61,62,60,59,95,89,78,30.16,30.06,1,0,2,0.00
2013-10-16,74,64,55,64,60,54,96,87,65,30.08,29.98,1,0,4,0.00
2013-10-17,68,65,59,67,63,58,95,95,92,29.97,29.89,3,0,5,0.48
2013-10-18,71,59,52,58,54,51,96,85,55,30.04,29.94,3,0,7,0.00
2013-10-19,66,58,53,58,55,52,96,91,75,30.00,29.94,2,0,5,0.03
2013-10-20,72,54,44,52,45,39,96,78,32,30.09,30.00,2,0,4,0.02
2013-10-21,71,55,42,59,50,41,97,86,54,30.16,30.04,2,0,6,0.00
2013-10-22,73,61,56,58,54,48,96,80,44,30.06,29.86,3,0,6,0.02
2013-10-23,61,53,40,52,44,35,94,75,42,30.12,29.86,11,1,16,0.00
2013-10-24,64,47,36,45,39,34,96,77,39,30.24,30.11,2,0,7,0.00
2013-10-25,58,45,35,43,33,27,90,66,36,30.42,30.25,4,0,10,0.00
2013-10-26,61,44,32,44,36,30,95,78,39,30.38,30.21,4,0,8,0.00
2013-10-27,68,53,39,56,47,37,95,83,59,30.21,30.14,2,0,8,0.00
2013-10-28,68,58,53,59,55,52,96,91,69,30.29,30.15,3,0,5,0.15
2013-10-29,76,61,52,62,56,50,96,86,58,30.35,30.25,3,0,6,0.00
2013-10-30,78,63,53,61,57,52,96,83,52,30.32,30.17,5,0,6,0.00
2013-10-31,73,65,56,65,60,55,95,84,72,30.19,29.86,6,1,11,0.00
2013-11-1,77,67,54,66,58,48,95,76,41,29.86,29.72,12,1,15,0.64
2013-11-2,69,56,47,50,45,40,93,70,37,30.08,29.82,4,0,13,0.00
2013-11-3,68,51,40,45,41,38,95,74,36,30.33,30.08,4,0,9,0.00
2013-11-4,65,50,41,44,41,39,95,74,42,30.47,30.33,3,0,5,0.00
2013-11-5,67,52,43,47,40,36,85,67,38,30.49,30.35,2,0,5,0.00
2013-11-6,74,60,51,60,55,47,94,83,61,30.37,30.13,4,0,6,0.00
2013-11-7,61,55,40,59,49,36,95,81,57,30.24,30.05,12,1,14,0.17
2013-11-8,64,46,33,36,32,27,93,64,26,30.38,30.24,3,0,7,0.00
2013-11-9,60,46,36,45,38,34,93,76,41,30.40,30.26,2,0,6,0.00
2013-11-10,72,54,44,45,42,40,94,68,37,30.32,30.22,4,0,9,0.00
2013-11-11,68,49,36,43,38,34,94,70,29,30.35,30.20,2,0,6,0.00
2013-11-12,60,44,32,45,34,19,94,70,48,30.49,30.17,10,1,22,0.00
2013-11-13,52,35,25,26,20,13,87,59,26,30.63,30.49,2,0,7,0.00
2013-11-14,61,39,24,30,25,20,94,64,21,30.55,30.36,4,0,6,0.00
2013-11-15,50,45,36,47,41,29,95,84,61,30.37,30.19,0,0,1,0.29
2013-11-16,63,55,48,58,53,46,96,94,83,30.26,30.16,0,0,1,0.00
2013-11-17,68,61,57,66,60,55,96,95,94,30.20,29.94,3,0,8,0.09
2013-11-18,69,62,50,67,48,34,96,66,32,30.06,29.90,11,1,18,0.13
2013-11-19,61,49,40,41,35,30,83,60,37,30.20,30.05,2,0,7,0.00
2013-11-20,58,48,40,37,34,31,77,60,42,30.37,30.20,2,0,5,0.00
2013-11-21,58,51,48,48,43,36,90,75,59,30.43,30.34,1,0,4,0.00
2013-11-22,64,56,50,59,54,48,95,91,81,30.38,30.20,0,0,3,0.06
2013-11-23,59,51,39,57,46,29,95,82,62,30.29,30.16,7,1,14,0.00
2013-11-24,48,36,29,28,20,16,78,56,31,30.51,30.28,6,0,12,0.00
2013-11-25,44,36,29,32,20,13,84,55,34,30.52,30.26,1,0,7,0.01
2013-11-26,49,40,34,48,39,31,96,95,83,30.25,29.72,3,0,8,1.85
2013-11-27,42,34,27,41,28,19,95,79,60,30.31,29.72,10,2,18,0.20
2013-11-28,50,32,22,28,23,19,91,70,37,30.53,30.32,4,0,6,0.01
2013-11-29,62,40,25,36,28,20,95,69,23,30.58,30.48,3,0,4,0.00
2013-11-30,54,42,35,32,29,28,84,63,38,30.59,30.38,1,0,4,0.00
2013-12-1,58,46,39,41,36,29,90,68,53,30.39,30.06,1,0,6,0.00
2013-12-2,51,48,43,50,46,40,96,94,88,30.05,29.86,2,0,3,0.40
2013-12-3,56,53,51,55,52,50,96,96,95,29.93,29.86,0,0,3,0.26
2013-12-4,71,60,54,64,58,53,97,93,75,30.05,29.93,7,0,10,0.01
2013-12-5,72,67,64,68,66,63,96,95,87,30.09,29.98,4,0,9,1.12
2013-12-6,75,68,53,68,65,52,96,90,78,30.07,29.95,11,1,16,0.47
2013-12-7,53,43,40,51,41,39,96,92,85,30.34,30.06,5,1,10,0.01
2013-12-8,48,45,40,48,44,39,97,96,96,30.33,30.21,4,0,6,0.20
2013-12-9,49,44,40,48,43,39,97,96,96,30.23,30.05,0,0,2,1.34
2013-12-10,49,43,29,48,39,28,96,86,59,30.38,30.00,7,1,16,0.38
2013-12-11,56,38,26,36,30,25,96,76,34,30.50,30.36,1,0,4,0.00
2013-12-12,46,36,30,32,24,19,87,65,37,30.51,30.41,7,0,11,0.00
2013-12-13,58,41,25,34,24,18,88,56,23,30.45,30.21,2,0,6,0.00
2013-12-14,50,47,44,49,43,32,96,88,62,30.22,29.86,2,0,7,0.82
2013-12-15,50,39,32,49,35,29,96,85,77,30.24,29.88,7,1,14,0.00
2013-12-16,56,38,30,36,31,28,94,78,41,30.32,30.23,3,0,8,0.00
2013-12-17,63,45,29,39,34,28,97,70,37,30.28,30.13,6,0,11,0.00
2013-12-18,54,41,31,32,25,19,85,57,27,30.37,30.23,7,0,9,0.00
2013-12-19,64,43,28,34,28,25,92,62,24,30.39,30.24,4,0,7,0.00
2013-12-20,62,49,37,51,43,31,91,79,65,30.26,30.15,3,0,7,0.00
2013-12-21,70,61,51,65,58,50,96,92,85,30.14,29.93,6,0,13,0.04
2013-12-22,70,61,56,66,59,55,96,93,86,30.09,29.89,10,0,12,3.48
2013-12-23,56,48,35,55,45,31,96,89,82,30.29,30.05,8,1,13,0.00
2013-12-24,40,33,26,31,25,21,88,74,50,30.46,30.29,8,1,13,0.00
2013-12-25,47,33,24,28,23,18,92,70,40,30.54,30.39,1,0,3,0.00
2013-12-26,55,40,28,32,28,24,88,65,37,30.44,30.32,6,0,6,0.00
2013-12-27,55,37,27,33,29,26,94,76,36,30.51,30.38,2,0,3,0.00
2013-12-28,47,39,31,39,34,29,95,86,56,30.45,30.03,0,0,4,0.93
2013-12-29,49,44,40,45,42,39,96,93,87,30.09,29.91,4,0,7,0.14
2013-12-30,48,43,39,43,40,36,96,91,82,30.26,30.08,3,0,6,0.01
2013-12-31,45,39,32,36,31,25,92,75,45,30.42,30.25,6,0,9,0.00
2014-1-1,50,41,31,40,33,29,94,77,53,30.41,30.17,0,0,3,0.00
2014-1-2,51,42,26,49,38,17,95,87,69,30.18,29.81,14,2,19,0.32